Location: Chabot Space and Science Center
(37.8191°N, 122.1819°W)
Time: 15:22:52
(UTC-08:00)

ISS - Pass Details

Date: 07 December 2021
Orbit: 413 x 422 km, 51.6° (Epoch: 20 January)

Event Time Altitude Azimuth Distance (km) Brightness Sun altitude
Rises 18:59:13 0° 295° (WNW) 2,377 0.9 -24.9°
Reaches altitude 10° 19:01:44 10° 277° (W) 1,505 0.0 -25.4°
Maximum altitude 19:04:11 19° 230° (SW) 1,076 -1.1 -25.9°
Enters shadow 19:05:08 17° 208° (SSW) 1,148 -1.2 -26.1°
